Location: *
(34.0486°S, 61.7880°E)
Time: 13:56:40
(UTC+00:00)

Cosmos 1140 Rocket - Pass Details

Date: 01 April 2020
Orbit: 745 x 767 km, 74.1° (Epoch: 04 June)

Event Time Altitude Azimuth Distance (km) Brightness Sun altitude
Rises 15:01:18 0° 191° (SSW) 3,267 7.0 -16.1°
Reaches altitude 10° 15:03:46 10° 186° (S) 2,334 6.1 -16.6°
Maximum altitude 15:08:55 50° 110° (ESE) 986 3.7 -17.7°
Enters shadow 15:11:38 26° 48° (NE) 1,488 4.5 -18.3°
